Miscellaneous Local Product
Issued by NWS Hastings, NE

Home | Current Version | Previous Version | Text Only | Print | Product List | Glossary On
Versions: 1 2 3 4 5 6 7 8 9 10 11 12 13 14 15 16 17 18 19 20 21 22 23 24 25 26 27 28 29 30 31 32 33 34 35 36 37 38 39 40 41 42 43 44 45 46 47 48 49 50
040
AXUS43 KGID 010702
MISGRI

GID CWA HOURLY WEATHER ROUNDUP
NATIONAL WEATHER SERVICE HASTINGS NE
200 AM CDT SUN MAY 01 2016

NOTE: "FAIR" INDICATES FEW OR NO CLOUDS BELOW 12,000 FEET WITH NO
SIGNIFICANT WEATHER AND/OR OBSTRUCTIONS TO VISIBILITY.

...SOUTH CENTRAL NEBRASKA...

CITY           SKY/WX    TMP DP  RH WIND       PRES   REMARKS
GRAND ISLAND   LGT RAIN  43  41  93 N16       29.94R FOG
HASTINGS       CLOUDY    43  42  97 N17G24    29.91R
KEARNEY        CLOUDY    43  39  87 N17       29.95R
ORD            LGT RAIN  41  38  89 NE16G25   29.99R
YORK           CLOUDY    46  45  93 NE16G24   29.90R FOG
AURORA         CLOUDY    45  44  99 NE17G23   29.91S FOG
LEXINGTON      LGT RAIN  40  38  89 N17       29.99R WCI  32
HOLDREGE       RAIN      42  41  96 N17       29.94R
HEBRON         CLOUDY    47  45  92 W5        29.88F

...NEBRASKA PANHANDLE...

CITY           SKY/WX    TMP DP  RH WIND       PRES   REMARKS
CHADRON        CLOUDY    41  36  82 NE8       30.21S
ALLIANCE       MIX PCPN  33  32  96 N13       30.18R WCI  24
SCOTTSBLUFF    LGT RAIN  37  35  92 NW8       30.21S WCI  31
SIDNEY         LGT SNOW  34  32  92 N21       30.15R FOG     WCI  22

...WESTERN AND NORTH CENTRAL NEBRASKA...

CITY           SKY/WX    TMP DP  RH WIND       PRES   REMARKS
VALENTINE      LGT RAIN  39  37  92 NE8       30.15R WCI  33
AINSWORTH      LGT RAIN  39  38  96 NE16G23   30.11S WCI  31
ONEILL         LGT RAIN  42  40  93 NE21G29   30.06R
BROKEN BOW     RAIN      39  36  89 N16G30    30.01R WCI  30
IMPERIAL       LGT SNOW  34  32  92 N18       30.08R FOG     WCI  23
NORTH PLATTE   LGT SNOW  33  32  96 N15       30.05R FOG     WCI  23
MCCOOK         CLOUDY    37  34  89 N20       30.00S WCI  27

...EASTERN NEBRASKA...

CITY           SKY/WX    TMP DP  RH WIND       PRES   REMARKS
NORFOLK        LGT RAIN  42  39  89 NE16      29.98R
SO SIOUX CITY  LGT RAIN  45  41  86 NE14      30.01R
TEKAMAH        CLOUDY    45  43  93 NE16      29.95S
COLUMBUS       CLOUDY    45  36  70 NE16      29.95R
ALBION         LGT RAIN  41  40  95 NE18      29.98R
OMAHA EPPLEY   DRIZZLE   47  45  93 NE15      29.92R
OFFUTT AFB     DRIZZLE   48  48  99 NE9       29.90R
MILLARD        DRIZZLE   48  46  95 NE9       29.90R
LINCOLN        CLOUDY    49  48  97 NE12      29.89R FOG
NEBRASKA CITY  CLOUDY    51  51 100 CALM      29.88S FOG
BEATRICE       CLOUDY    48  46  94 CALM      29.88S
FALLS CITY     CLOUDY    53  48  83 W6        29.87S

...NORTHERN KANSAS...

CITY           SKY/WX    TMP DP  RH WIND       PRES   REMARKS
GOODLAND       CLOUDY    35  33  92 N23G30    30.03R WCI  23
HILL CITY      CLOUDY    40  36  86 NW18      29.97S WCI  31
NORTON         DRIZZLE   37  34  87 NW14      29.96  WCI  29
PHILLIPSBURG   CLOUDY    41  39  93 W14G20    29.95S
SMITH CENTER   CLOUDY    39  39 100 NW13      29.92F WCI  32
BELOIT         CLOUDY    43  41  93 SW6       29.92R
HAYS           CLOUDY    43  30  61 W14       29.97S
RUSSELL        CLOUDY    43  39  86 W14       29.95R
CONCORDIA      PTCLDY    43  41  93 W7        29.91R
SALINA         CLEAR     46  41  82 W10       29.94R
TOPEKA         PTCLDY    52  45  77 SW3       29.90S



USA.gov is the U.S. government's official web portal to all federal, state and local government web resources and services.